Location: Eschentzwiller
(47.7125°N, 7.3981°E)
Time: 03:43:04
(UTC+00:00)

Cosmos 1656 - Pass Details

Date: 27 October 2020
Orbit: 797 x 851 km, 71.1° (Epoch: 01 December)

Event Time Altitude Azimuth Distance (km) Brightness Sun altitude
Rises 17:13:46 0° 181° (S) 3,331 6.9 -9.6°
Reaches altitude 10° 17:16:18 10° 174° (S) 2,412 6.1 -10.0°
Maximum altitude 17:21:22 39° 107° (ESE) 1,234 4.1 -10.8°
Drops below altitude 10° 17:26:33 10° 40° (NE) 2,462 5.7 -11.7°
Enters shadow 17:28:26 - 35° (NE) 3,140 6.3 -12.0°
